Beaver Island, MI

3:09 AM EDT on July 25, 2017 (GMT -0400)
Beaver Island

Weather History for KSJX - October, 2012

Change the Weather History Date:

Thursday, October 11, 2012

  Actual Average Record
Temperature  
Mean Temperature 42 °F -  
Max Temperature 46 °F 57 °F 75 °F (2011)
Min Temperature 39 °F 41 °F 28 °F (1964)
Degree Days  
Heating Degree Days 22    
Moisture  
Dew Point 34 °F    
Average Humidity 67    
Maximum Humidity 87    
Minimum Humidity 48    
Precipitation  
Precipitation 0.00 in - - ()
Sea Level Pressure  
Sea Level Pressure 29.97 in    
Wind  
Wind Speed 13 mph (West)    
Max Wind Speed 24 mph    
Max Gust Speed 39 mph    
Visibility 10 miles    
Events Rain    
Averages and records for this station are not official NWS values.
T = Trace of Precipitation, MM = Missing Value Source: NWS Daily Summary

Daily Weather History Graph

Daily Weather History Graph

Search for Another Location

Airport or City:

Trip Planner

Search our weather history database for the weather conditions in past years. The results will help you decide how hot, cold, wet, or windy it might be!

Date:

Astronomy

Oct. 11, 2012 Rise Set
Actual Time 7:54 AM EDT 7:02 PM EDT
Civil Twilight 7:24 AM EDT 7:32 PM EDT
Nautical Twilight 6:49 AM EDT 8:06 PM EDT
Astronomical Twilight 6:15 AM EDT 8:41 PM EDT
Moon 3:19 AM EDT (10/11) 4:48 PM EDT (10/11)
Length of Visible Light 12h 08m
Length of Day
11h 08m
Waning Crescent, 18% of the Moon is Illuminated
Oct 11
Waning Crescent
Oct 15
New
Oct 21
First Quarter
Oct 29
Full
Nov 6
Last Quarter

Hourly Weather History & Observations

Time (EDT) Temp. Windchill Dew Point Humidity Pressure Visibility Wind Dir Wind Speed Gust Speed Precip Events Conditions
12:15 AM 43.3 °F 36.8 °F 25.2 °F 49% 30.03 in 10.0 mi West 12.7 mph 18.4 mph N/A   Overcast
12:35 AM 43.7 °F 38.6 °F 25.5 °F 49% 30.03 in 10.0 mi West 9.2 mph - N/A   Overcast
12:55 AM 44.2 °F 38.8 °F 25.5 °F 48% 30.03 in 10.0 mi West 10.4 mph 16.1 mph N/A   Overcast
1:15 AM 44.2 °F 37.0 °F 26.6 °F 50% 30.03 in 10.0 mi WSW 16.1 mph 19.6 mph N/A   Overcast
1:35 AM 44.2 °F 38.4 °F 26.1 °F 49% 30.02 in 10.0 mi WSW 11.5 mph 17.3 mph N/A   Overcast
1:55 AM 44.1 °F 38.6 °F 26.1 °F 49% 30.01 in 10.0 mi WSW 10.4 mph - N/A   Overcast
2:15 AM 44.2 °F 38.4 °F 26.4 °F 50% 30.01 in 10.0 mi WSW 11.5 mph - N/A   Mostly Cloudy
2:55 AM 44.4 °F 39.5 °F 26.8 °F 50% 29.99 in 10.0 mi SW 9.2 mph - N/A   Mostly Cloudy
3:15 AM 44.8 °F 41.0 °F 27.1 °F 50% 29.99 in 10.0 mi SW 6.9 mph - N/A   Overcast
3:55 AM 45.3 °F 40.1 °F 28.8 °F 52% 29.97 in 10.0 mi SW 10.4 mph - N/A   Overcast
4:15 AM 46.4 °F 42.4 °F 29.5 °F 52% 29.97 in 10.0 mi WSW 8.1 mph - N/A   Overcast
4:35 AM 46.4 °F 40.1 °F 29.8 °F 53% 29.97 in 10.0 mi SW 15.0 mph 23.0 mph N/A   Drizzle
4:55 AM 46.0 °F 39.0 °F 30.9 °F 56% 29.97 in 10.0 mi WSW 17.3 mph - N/A   Overcast
5:15 AM 45.7 °F 38.3 °F 31.8 °F 58% 29.97 in 10.0 mi WSW 18.4 mph 24.2 mph N/A Rain Light Rain
5:35 AM 45.0 °F 36.9 °F 32.5 °F 62% 29.97 in 10.0 mi WSW 20.7 mph 25.3 mph N/A   Light Drizzle
5:55 AM 44.2 °F 37.3 °F 34.0 °F 67% 29.96 in 10.0 mi SW 15.0 mph 25.3 mph N/A   Light Drizzle
6:15 AM 43.0 °F 36.8 °F 35.6 °F 75% 29.96 in 10.0 mi SW 11.5 mph 20.7 mph N/A Rain Light Rain
6:35 AM 42.1 °F 34.9 °F 36.5 °F 81% 29.95 in 10.0 mi SW 13.8 mph 18.4 mph N/A Rain Light Rain
6:55 AM 41.7 °F 36.1 °F 36.7 °F 82% 29.95 in 10.0 mi SW 9.2 mph 18.4 mph N/A Rain Light Rain
7:15 AM 41.9 °F 36.9 °F 36.7 °F 82% 29.93 in 7.0 mi SW 8.1 mph - N/A Rain Light Rain
7:35 AM 41.9 °F 36.9 °F 37.4 °F 84% 29.93 in 7.0 mi SSW 8.1 mph - N/A Rain Rain
7:55 AM 42.1 °F 37.7 °F 38.3 °F 86% 29.91 in 7.0 mi South 6.9 mph - N/A Rain Rain
8:15 AM 42.8 °F 37.5 °F 39.2 °F 87% 29.90 in 7.0 mi SSW 9.2 mph - N/A Rain Light Rain
8:36 AM 43.0 °F 37.2 °F 39.4 °F 87% 29.89 in 5.0 mi South 10.4 mph 17.3 mph N/A Rain Rain
8:55 AM 44.1 °F 39.5 °F 40.3 °F 87% 29.88 in 4.0 mi SSW 8.1 mph 18.4 mph N/A Rain Rain
9:15 AM 45.5 °F 38.1 °F 41.4 °F 85% 29.86 in 5.0 mi SSW 18.4 mph 26.5 mph N/A Rain Light Rain
9:35 AM 45.9 °F 37.8 °F 41.0 °F 83% 29.85 in 5.0 mi SW 21.9 mph 39.1 mph N/A Rain Light Rain
9:55 AM 45.9 °F 37.6 °F 39.2 °F 78% 29.84 in 10.0 mi WSW 23.0 mph 31.1 mph N/A Rain Rain
10:15 AM 45.5 °F 37.8 °F 38.3 °F 76% 29.83 in 10.0 mi SW 19.6 mph 29.9 mph N/A   Light Drizzle
10:35 AM 45.7 °F 38.3 °F 38.7 °F 76% 29.83 in 10.0 mi WSW 18.4 mph 26.5 mph N/A   Overcast
10:55 AM 46.4 °F 38.3 °F 39.2 °F 76% 29.83 in 10.0 mi WSW 23.0 mph 28.8 mph N/A   Overcast
11:15 AM 46.0 °F 37.6 °F 39.2 °F 77% 29.83 in 10.0 mi WSW 24.2 mph 29.9 mph N/A   Drizzle
11:35 AM 46.4 °F 38.7 °F 38.5 °F 74% 29.84 in 10.0 mi West 20.7 mph 27.6 mph N/A   Light Drizzle
11:55 AM 46.6 °F - 36.9 °F 69% 29.85 in 10.0 mi West 15.0 mph 25.3 mph N/A   Overcast
12:15 PM 46.4 °F 40.4 °F 35.8 °F 67% 29.87 in 10.0 mi West 13.8 mph 26.5 mph N/A   Overcast
12:35 PM 46.2 °F 41.2 °F 36.0 °F 67% 29.87 in 10.0 mi West 10.4 mph 20.7 mph N/A   Overcast
12:55 PM 45.9 °F 40.4 °F 36.5 °F 70% 29.88 in 10.0 mi WNW 11.5 mph 21.9 mph N/A   Mostly Cloudy
1:15 PM 45.1 °F 39.9 °F 35.8 °F 70% 29.89 in 10.0 mi WNW 10.4 mph 20.7 mph N/A   Mostly Cloudy
1:55 PM 45.7 °F 41.5 °F 36.3 °F 70% 29.90 in 10.0 mi West 8.1 mph 16.1 mph N/A   Mostly Cloudy
2:15 PM 46.0 °F 39.6 °F 36.1 °F 68% 29.91 in 10.0 mi West 15.0 mph 20.7 mph N/A   Overcast
2:35 PM 46.4 °F 40.1 °F 35.6 °F 66% 29.92 in 10.0 mi West 15.0 mph 21.9 mph N/A   Mostly Cloudy
2:55 PM 46.2 °F 41.7 °F 35.2 °F 66% 29.93 in 10.0 mi West 9.2 mph 24.2 mph N/A   Mostly Cloudy
3:15 PM 46.6 °F - 35.1 °F 64% 29.93 in 10.0 mi West 13.8 mph 19.6 mph N/A   Overcast
3:35 PM 46.0 °F 40.2 °F 33.8 °F 62% 29.95 in 10.0 mi WNW 12.7 mph 27.6 mph N/A   Overcast
3:55 PM 46.0 °F 40.2 °F 34.2 °F 63% 29.95 in 10.0 mi WNW 12.7 mph 21.9 mph N/A   Mostly Cloudy
4:15 PM 46.0 °F 40.6 °F 34.3 °F 64% 29.97 in 10.0 mi NW 11.5 mph 27.6 mph N/A   Mostly Cloudy
4:35 PM 45.9 °F 40.8 °F 34.0 °F 63% 29.98 in 10.0 mi WNW 10.4 mph 16.1 mph N/A   Mostly Cloudy
4:55 PM 46.4 °F 40.4 °F 32.4 °F 58% 29.98 in 10.0 mi West 13.8 mph 24.2 mph N/A   Mostly Cloudy
5:16 PM 45.9 °F 39.7 °F 34.2 °F 64% 30.00 in 10.0 mi NW 13.8 mph 21.9 mph N/A   Mostly Cloudy
6:15 PM 44.2 °F 39.7 °F 32.0 °F 62% 30.02 in 10.0 mi West 8.1 mph 19.6 mph N/A   Overcast
6:35 PM 44.2 °F 39.7 °F 32.5 °F 63% 30.03 in 10.0 mi WNW 8.1 mph - N/A   Scattered Clouds
6:55 PM 44.8 °F 39.4 °F 31.1 °F 59% 30.04 in 10.0 mi WNW 10.4 mph 18.4 mph N/A   Scattered Clouds
7:35 PM 45.0 °F 39.7 °F 28.4 °F 52% 30.06 in 10.0 mi WNW 10.4 mph 19.6 mph N/A   Scattered Clouds
7:55 PM 44.2 °F 38.0 °F 31.8 °F 62% 30.07 in 10.0 mi WNW 12.7 mph 20.7 mph N/A   Mostly Cloudy
8:15 PM 44.2 °F 39.2 °F 29.3 °F 56% 30.08 in 10.0 mi West 9.2 mph 20.7 mph N/A   Scattered Clouds
8:35 PM 44.8 °F 36.9 °F 28.4 °F 53% 30.09 in 10.0 mi NW 19.6 mph 28.8 mph N/A   Mostly Cloudy
8:55 PM 39.7 °F 31.9 °F 33.6 °F 79% 30.12 in 10.0 mi WNW 13.8 mph 25.3 mph N/A Rain Rain
9:15 PM 40.1 °F 33.2 °F 34.2 °F 79% 30.13 in 10.0 mi WNW 11.5 mph 19.6 mph N/A   Overcast
9:35 PM 41.0 °F 33.5 °F 34.2 °F 77% 30.13 in 10.0 mi NW 13.8 mph 24.2 mph N/A   Overcast
9:55 PM 40.3 °F 34.4 °F 34.2 °F 79% 30.14 in 10.0 mi West 9.2 mph 17.3 mph N/A   Overcast
10:15 PM 41.0 °F 34.3 °F 34.7 °F 78% 30.15 in 10.0 mi West 11.5 mph 18.4 mph N/A   Overcast
10:55 PM 41.0 °F 34.7 °F 32.2 °F 71% 30.17 in 10.0 mi NW 10.4 mph 25.3 mph N/A   Mostly Cloudy
11:35 PM 40.3 °F 34.4 °F 32.4 °F 73% 30.18 in 10.0 mi NW 9.2 mph 21.9 mph N/A   Mostly Cloudy
11:55 PM 39.9 °F 34.5 °F 32.4 °F 74% 30.19 in 10.0 mi NW 8.1 mph 16.1 mph N/A   Scattered Clouds